Вернуться в каталог

STARLINK-31138

АктивенСвязьVLEO
NORAD 58806·PAYLOAD·🇺🇸 United States

Запущен Jan 15, 2024 с Cape Canaveral Space Force Station

Loading…

Ближайшие Пролёты (ближайшие 24 часа)

TLE

СвежийSource: CelesTrak SupGP

Эпоха: Sep 14, 2026, 20:46 UTC

1 58806C 24012V   26257.86576389 -.00000303  00000+0 -10982-4 0  2578
2 58806  43.0010 177.0192 0001404 265.3328 191.7264 15.27585332    14

Отслеживайте STARLINK-31138 в реальном времени с AllMySat

Download on the App Store